Regional Weather Roundup
Issued by NWS

Home | Current Version | Previous Version | Text Only | Print | Product List | Glossary Off
Versions: 1 2 3 4 5 6 7 8 9 10 11 12 13 14 15 16 17 18 19 20 21 22 23 24 25 26 27 28 29 30 31 32 33 34 35 36 37 38 39 40 41 42 43 44 45 46 47 48 49 50

000
ASUS45 KCYS 280910
RWRWY

WYOMING REGIONAL WEATHER ROUNDUP
NATIONAL WEATHER SERVICE CHEYENNE WY
300 AM MDT TUE JUL 28 2015

NOTE:  "FAIR" INDICATES FEW OR NO CLOUDS BELOW 12,000 FEET
WITH NO SIGNIFICANT WEATHER AND/OR OBSTRUCTIONS TO VISIBILITY.

WYZ001-281000-
YELLOWSTONE NATIONAL PARK

CITY           SKY/WX    TMP DP  RH WIND       PRES   REMARKS
LK YELLOWSTONE   N/A     34  31  88 CALM      30.26F
W YELLOWSTONE  NOT AVBL

$$
WYZ002>013-054>058-071-098>099-281000-
NORTHERN WYOMING

CITY           SKY/WX    TMP DP  RH WIND       PRES   REMARKS
JACKSON        FAIR      36  36 100 CALM      30.25R
CODY           FAIR      54  30  40 W12G28    30.07R
GREYBULL       FAIR      51  44  77 W8        30.03R
WORLAND        FAIR      47  43  86 CALM      30.04R
SHERIDAN       FAIR      48  43  82 S7        29.98S
BUFFALO        FAIR      49  45  86 S6        30.04R
GILLETTE       FAIR      48  44  86 W8        30.01R
HULETT         FAIR      50  46  87 SW9       29.99R
NEWCASTLE      FAIR      52  45  76 NW10      30.02R

$$
WYZ014>020-022>026-101>103-281000-
CENTRAL WYOMING

CITY           SKY/WX    TMP DP  RH WIND       PRES   REMARKS
BIG PINEY      FAIR      36  25  64 NW6       30.28R WCI  31
PINEDALE       FAIR      32  30  93 W6        30.27S WCI  26
DUBOIS         FAIR      37  30  75 NW12      30.19R WCI  30
LANDER         FAIR      49  29  46 E7        30.12R
RIVERTON       FAIR      51  31  46 NW21      30.12R
CASPER         FAIR      50  28  42 SW14      30.09R
DOUGLAS        FAIR      48  40  73 CALM      30.07R

$$
WYZ021-027>030-104>119-281000-
SOUTHERN WYOMING

CITY           SKY/WX    TMP DP  RH WIND       PRES   REMARKS
EVANSTON       FAIR      45  32  60 CALM      30.30S
KEMMERER       FAIR      41  23  48 W5        30.30S
FORT BRIDGER   SUNNY     43  30  61 W7        30.32R
ROCK SPRINGS   FAIR      50  26  39 W8        30.25R
DIXON          FAIR      44  33  65 CALM      30.27S
RAWLINS        FAIR      49  30  48 SW9       30.22R
SARATOGA       FAIR      46  30  53 SW9       30.25S
LARAMIE        FAIR      51  27  39 N6        30.20S
CHEYENNE       FAIR      59  29  31 NW15G26   30.10R
TORRINGTON     FAIR      58  48  69 N9        30.01R
PINE BLUFFS    FAIR      63  30  29 NW20G30   30.04R

$$



USA.gov is the U.S. government's official web portal to all federal, state and local government web resources and services.